Home > Weather > Stoke-on-Trent > Past weeks

Flag for United Kingdom Weather for the Past 2 Weeks in Stoke-on-Trent, England, United Kingdom

Now
37 °F

Passing clouds.


Feels Like: 30 °F
Forecast: N/A
Wind: 10 mph from East

Location: Manchester Airport

Current Time: Feb 13, 2016 at 7:50:14 PM

Latest Report: Feb 13, 2016 at 7:20 PM


Visibility: N/A

Pressure: 29.24 "Hg

Humidity: 81%

Dew point: 32 °F

Location of Stoke-on-TrentLocation

Historic Weather in Stoke-on-Trent — Graph

°F

Stoke-on-Trent Temperature Yesterday

Maximum temperature yesterday: 43 °F (at 1:50 PM)
Minimum temperature yesterday: 34 °F (at 6:50 AM)
Average temperature yesterday: 39 °F

High & Low Weather Summary for the Past Weeks

 TemperatureHumidityPressure
High55 °F (Feb 1, 10:50 AM)100% (Jan 31, 11:20 AM)30.27 "Hg (Jan 31, 11:20 AM)
Low34 °F (Feb 3, 5:50 AM)53% (Feb 10, 2:20 PM)28.71 "Hg (Feb 8, 7:20 AM)
Average42 °F82%29.53 "Hg
* Reported Jan 29 6:20 PM — Feb 13 6:50 PM, Stoke-on-Trent, Weather by CustomWeather, © 2016

Note: Actual official high and low records may vary slightly from our data, if they occured in-between our weather recording intervals... More about our weather records

Advertising

Stoke-on-Trent Weather History for the Previous 24 Hours

 ConditionsComfort  
Time TempWeatherWind HumidityBarometerVisibility
6:50 PM
Sat, Feb 13
37 °FPassing clouds.12 mph81%29.24 "HgN/A
6:20 PM36 °FPassing clouds.8 mph81%29.24 "HgN/A
5:50 PM37 °FPassing clouds.9 mph75%29.21 "HgN/A
5:20 PM39 °FPassing clouds.8 mph70%29.21 "HgN/A
4:50 PM41 °FPassing clouds.13 mph66%29.21 "HgN/A
4:20 PM41 °FPassing clouds.14 mph70%29.21 "HgN/A
3:50 PM41 °FScattered clouds.14 mph70%29.18 "HgN/A
3:20 PM43 °FScattered clouds.9 mph66%29.18 "HgN/A
2:50 PM43 °FScattered clouds.10 mph66%29.18 "HgN/A
2:20 PM41 °FPassing clouds.16 mph66%29.18 "HgN/A
1:50 PM41 °FScattered clouds.16 mph70%29.18 "HgN/A
1:20 PM41 °FPassing clouds.14 mph70%29.18 "HgN/A
12:50 PM41 °FScattered clouds.16 mph70%29.18 "HgN/A
12:20 PM41 °FScattered clouds.16 mph66%29.18 "HgN/A
11:50 AM41 °FBroken clouds.14 mph70%29.18 "HgN/A
11:20 AM41 °FPassing clouds.17 mph66%29.18 "HgN/A
10:50 AM39 °FSunny.15 mph70%29.18 "Hg10 mi
10:20 AM39 °FSunny.15 mph70%29.18 "Hg10 mi
9:50 AM39 °FSunny.14 mph75%29.18 "Hg10 mi
9:20 AM37 °FScattered clouds.14 mph81%29.18 "HgN/A
8:50 AM37 °FScattered clouds.10 mph81%29.21 "HgN/A
8:20 AM37 °FBroken clouds.10 mph87%29.21 "Hg5 mi
7:50 AM37 °FScattered clouds.9 mph87%29.21 "Hg5 mi
7:20 AM37 °FLight rain. Passing clouds.10 mph87%29.21 "Hg3 mi
6:50 AM37 °FClear.14 mph87%29.21 "Hg6 mi
6:20 AM37 °FClear.13 mph87%29.21 "HgN/A
5:50 AM37 °FClear.10 mph87%29.21 "Hg10 mi
5:20 AM37 °FClear.10 mph87%29.24 "Hg6 mi
4:50 AM36 °FChilly.9 mph87%29.24 "Hg6 mi
4:20 AM36 °FClear.13 mph87%29.24 "Hg10 mi
3:50 AM36 °FPassing clouds.10 mph87%29.27 "HgN/A
3:20 AM36 °FPassing clouds.9 mph87%29.27 "HgN/A
2:50 AM36 °FPassing clouds.9 mph87%29.30 "HgN/A
2:20 AM36 °FPassing clouds.9 mph87%29.30 "HgN/A
1:50 AM36 °FPassing clouds.7 mph87%29.30 "HgN/A
1:20 AM37 °FPassing clouds.8 mph81%29.33 "HgN/A
12:50 AM37 °FPassing clouds.8 mph81%29.33 "HgN/A
12:20 AM37 °FPassing clouds.9 mph81%29.36 "HgN/A
11:50 PM
Fri, Feb 12
37 °FClear.9 mph81%29.36 "Hg10 mi
11:20 PM37 °FClear.8 mph87%29.36 "Hg10 mi
10:50 PM37 °FClear.8 mph87%29.36 "Hg10 mi
9:50 PM37 °FClear.9 mph87%29.39 "Hg10 mi
9:20 PM37 °FClear.6 mph87%29.39 "Hg10 mi
8:50 PM37 °FClear.10 mph87%29.39 "Hg10 mi
8:20 PM37 °FClear.9 mph87%29.39 "Hg10 mi
7:50 PM37 °FClear.8 mph87%29.42 "Hg10 mi
7:20 PM37 °FClear.9 mph87%29.42 "Hg10 mi
Weather by CustomWeather, © 2016

See weather overviewHow to use our weather pages